Location: Holyhead Bay
(53.3667°N, 4.6667°W)
Time: 09:56:22
(UTC+00:00)

Cosmos 2360 Rocket - Pass Details

Date: 12 April 2021
Orbit: 833 x 845 km, 71.0° (Epoch: 08 May)

Event Time Altitude Azimuth Distance (km) Brightness Sun altitude
Rises 22:06:43 0° 318° (NW) 3,415 6.9 -21.6°
Reaches altitude 10° 22:10:09 10° 297° (WNW) 2,473 5.5 -21.9°
Maximum altitude 22:13:21 16° 263° (W) 2,091 4.5 -22.1°
Drops below altitude 10° 22:16:34 10° 228° (SW) 2,458 4.5 -22.4°
Enters shadow 22:17:45 - 219° (SW) 2,740 4.7 -22.5°
